Voltar ao catálogo

STARLINK-34488

AtivoComunicaçõesVLEO
NORAD 64604·PAYLOAD·🇺🇸 United States

Lançado Jun 25, 2025 de Cape Canaveral Space Force Station

Loading…

Próximas Passagens (próximas 24 horas)

TLE

AtualizadoSource: CelesTrak SupGP

Época: Sep 14, 2026, 20:58 UTC

1 64604C 25137L   26257.87409722 -.00007515  00000+0 -22191-3 0  2573
2 64604  53.1598 175.7718 0001352  96.7328 136.1142 15.34410442    12

Acompanhe STARLINK-34488 em tempo real com AllMySat

Download on the App Store